Terug naar catalogus

TITAN 3C TRANSTAGE DEB

ActiefMEO
NORAD 25000·DEBRIS·🇺🇸 United States

Gelanceerd Sep 26, 1968 vanaf Cape Canaveral Space Force Station

Loading…

Volgende Passages (komende 24 uur)

TLE

VersSource: Space-Track

Epoch: Sep 14, 2026, 13:31 UTC

1 25000U 68081G   26257.56331591 -.00000084  00000-0  00000-0 0  9998
2 25000   2.0778  47.1414 0112324 287.4772  91.8721  1.01035810126224

Volg TITAN 3C TRANSTAGE DEB in realtime met AllMySat

Download on the App Store